Location: Stilling
(56.0622°N, 9.9882°E)
Time: 00:35:48
(UTC+00:00)

Resurs 1-4 Rocket - Pass Details

Date: 13 July 2020
Orbit: 800 x 814 km, 98.6° (Epoch: 03 August)

Event Time Altitude Azimuth Distance (km) Brightness Sun altitude
Rises 23:39:26 0° 24° (NNE) 3,352 6.8 -12.2°
Reaches altitude 10° 23:42:31 10° 42° (NE) 2,413 5.4 -12.2°
Maximum altitude 23:46:14 19° 86° (E) 1,859 4.1 -12.2°
Drops below altitude 10° 23:49:55 10° 131° (SE) 2,396 4.2 -12.1°
Enters shadow 23:51:17 - 141° (SE) 2,782 4.5 -12.1°
